EWG9881 GMAD-EDDL

Flight info

Callsign EWG9881
Flight time N/A
Altitude 36000
Route MOGBA UH300 ESS UR724 OSLAD DCT ELVAR/N0445F380 DCT BARDI N873 DELOG DCT DIDIG DCT TIRAV DCT ERJAZ DCT PIWIZ DCT TSU DCT LEQOS DCT CTL DCT ARDEN/N0447F330 DCT KOMOB T859 NVO T857 BIKMU BIKMU1A
Aircraft A320/M-SDE3FGHIRWY/LB1

Departure

Time 2026-04-30 06:01
Airport Al Massira Airport (GMAD)

Arrival

Time N/A
Airport Düsseldorf Airport (EDDL)
Time Latitude Longitude Altitude Speed Heading
2026-04-30 05:51 30.32915 -9.41394 230 ft 0 kts 51°
2026-04-30 05:53 30.32914 -9.41395 230 ft 2 kts 51°
2026-04-30 05:53 30.32898 -9.41419 230 ft 4 kts 51°
2026-04-30 05:53 30.32883 -9.41438 232 ft 4 kts 28°
2026-04-30 05:54 30.32858 -9.41445 233 ft 4 kts
2026-04-30 05:54 30.32847 -9.41445 233 ft 1 kts 360°
2026-04-30 05:54 30.32846 -9.41445 233 ft 0 kts 360°
2026-04-30 05:56 30.32860 -9.41446 233 ft 4 kts 356°
2026-04-30 05:56 30.32881 -9.41469 231 ft 5 kts 281°
2026-04-30 05:56 30.32882 -9.41513 228 ft 6 kts 272°
2026-04-30 05:57 30.32883 -9.41548 227 ft 0 kts 272°
2026-04-30 05:58 30.32861 -9.41642 226 ft 15 kts 220°
2026-04-30 05:58 30.32827 -9.41762 224 ft 18 kts 270°
2026-04-30 05:58 30.32836 -9.41916 221 ft 21 kts 272°
2026-04-30 05:58 30.32841 -9.42094 218 ft 23 kts 268°
2026-04-30 05:59 30.32732 -9.42175 217 ft 22 kts 182°
2026-04-30 05:59 30.32577 -9.42184 226 ft 23 kts 185°
2026-04-30 05:59 30.32475 -9.42302 218 ft 24 kts 270°
2026-04-30 05:59 30.32480 -9.42503 211 ft 26 kts 271°
2026-04-30 06:00 30.32483 -9.42718 211 ft 17 kts 270°
2026-04-30 06:00 30.32411 -9.42789 208 ft 16 kts 180°
2026-04-30 06:00 30.32308 -9.42749 212 ft 17 kts 117°
2026-04-30 06:00 30.32294 -9.42594 209 ft 32 kts 92°
2026-04-30 06:01 30.32280 -9.42039 221 ft 102 kts 92°
2026-04-30 06:01 30.32254 -9.40998 238 ft 154 kts 92°
2026-04-30 06:01 30.32195 -9.39675 691 ft 163 kts 93°
2026-04-30 06:01 30.32133 -9.38379 1396 ft 162 kts 93°
2026-04-30 06:02 30.31965 -9.37030 1851 ft 180 kts 108°
2026-04-30 06:02 30.31390 -9.35679 2180 ft 202 kts 126°
2026-04-30 06:02 30.30322 -9.34516 2512 ft 222 kts 147°
2026-04-30 06:02 30.28805 -9.33846 2879 ft 248 kts 171°
2026-04-30 06:03 30.27041 -9.34003 3495 ft 263 kts 198°
2026-04-30 06:03 30.25458 -9.35089 4302 ft 270 kts 225°
2026-04-30 06:03 30.24458 -9.36931 5167 ft 276 kts 253°
2026-04-30 06:03 30.24259 -9.39138 6063 ft 278 kts 270°
2026-04-30 06:04 30.24293 -9.41380 6955 ft 280 kts 271°
2026-04-30 06:04 30.24341 -9.43636 7829 ft 282 kts 270°
2026-04-30 06:04 30.24390 -9.45910 8700 ft 284 kts 270°
2026-04-30 06:05 30.24462 -9.50510 10302 ft 293 kts 268°
2026-04-30 06:05 30.24393 -9.52961 10546 ft 317 kts 268°
2026-04-30 06:05 30.24391 -9.55599 10781 ft 338 kts 270°
2026-04-30 06:05 30.24439 -9.58356 11348 ft 347 kts 270°
2026-04-30 06:06 30.24520 -9.61157 12054 ft 350 kts 271°
2026-04-30 06:06 30.24610 -9.63977 12810 ft 352 kts 271°
2026-04-30 06:06 30.24686 -9.66813 13559 ft 354 kts 270°
2026-04-30 06:06 30.24968 -9.69651 14220 ft 359 kts 286°
2026-04-30 06:07 30.26211 -9.72164 14831 ft 367 kts 311°
2026-04-30 06:07 30.28273 -9.73942 15437 ft 375 kts 327°
2026-04-30 06:07 30.30568 -9.75405 16059 ft 378 kts 330°
2026-04-30 06:07 30.32984 -9.76653 16651 ft 384 kts 340°
2026-04-30 06:08 30.35621 -9.77299 17242 ft 391 kts 351°
2026-04-30 06:08 30.38363 -9.77390 17819 ft 398 kts
2026-04-30 06:08 30.41133 -9.77149 18377 ft 401 kts
2026-04-30 06:08 30.43892 -9.76922 18857 ft 404 kts
2026-04-30 06:09 30.46709 -9.76700 19336 ft 407 kts
2026-04-30 06:09 30.49585 -9.76473 19814 ft 411 kts
2026-04-30 06:09 30.52411 -9.76245 20281 ft 414 kts
2026-04-30 06:09 30.55297 -9.76006 20747 ft 418 kts
2026-04-30 06:10 30.58207 -9.75762 21210 ft 421 kts
2026-04-30 06:10 30.61140 -9.75512 21671 ft 424 kts
2026-04-30 06:10 30.64090 -9.75255 22118 ft 428 kts
2026-04-30 06:10 30.67071 -9.74995 22571 ft 431 kts
2026-04-30 06:11 30.70066 -9.74734 23011 ft 434 kts
2026-04-30 06:11 30.73092 -9.74472 23445 ft 437 kts
2026-04-30 06:11 30.76129 -9.74209 23823 ft 440 kts
2026-04-30 06:11 30.79194 -9.73941 24163 ft 443 kts
2026-04-30 06:12 30.82284 -9.73671 24488 ft 447 kts
2026-04-30 06:12 30.85393 -9.73401 24806 ft 450 kts
2026-04-30 06:12 30.88527 -9.73127 25130 ft 453 kts
2026-04-30 06:12 30.91687 -9.72851 25406 ft 458 kts
2026-04-30 06:13 30.94877 -9.72572 25711 ft 461 kts
2026-04-30 06:13 30.98088 -9.72293 26005 ft 465 kts
2026-04-30 06:13 31.01326 -9.72014 26308 ft 468 kts
2026-04-30 06:13 31.04586 -9.71735 26612 ft 471 kts
2026-04-30 06:14 31.07871 -9.71455 26909 ft 475 kts
2026-04-30 06:14 31.11176 -9.71172 27199 ft 478 kts
2026-04-30 06:14 31.14506 -9.70888 27485 ft 481 kts
2026-04-30 06:14 31.17861 -9.70602 27761 ft 485 kts
2026-04-30 06:15 31.21241 -9.70316 28015 ft 489 kts
2026-04-30 06:15 31.24644 -9.70025 28281 ft 492 kts
2026-04-30 06:15 31.28021 -9.69733 28532 ft 495 kts
2026-04-30 06:15 31.31511 -9.69436 28788 ft 498 kts
2026-04-30 06:16 31.34976 -9.69143 29043 ft 501 kts
2026-04-30 06:16 31.38415 -9.68845 29285 ft 504 kts
2026-04-30 06:16 31.41899 -9.68211 29518 ft 510 kts 11°
2026-04-30 06:16 31.45358 -9.67227 29783 ft 513 kts 11°
2026-04-30 06:17 31.48827 -9.66226 30118 ft 513 kts 11°
2026-04-30 06:17 31.52300 -9.65223 30416 ft 514 kts 11°
2026-04-30 06:17 31.55770 -9.64220 30739 ft 513 kts 11°
2026-04-30 06:17 31.59241 -9.63217 31077 ft 513 kts 11°
2026-04-30 06:18 31.62704 -9.62223 31416 ft 512 kts 11°
2026-04-30 06:18 31.66162 -9.61232 31759 ft 511 kts 11°
2026-04-30 06:18 31.69613 -9.60243 32106 ft 511 kts 11°
2026-04-30 06:18 31.73061 -9.59251 32481 ft 509 kts 11°
2026-04-30 06:19 31.76495 -9.58264 32862 ft 508 kts 11°
2026-04-30 06:19 31.79927 -9.57279 33217 ft 507 kts 11°
2026-04-30 06:19 31.83349 -9.56297 33546 ft 506 kts 11°
2026-04-30 06:19 31.86760 -9.55316 33877 ft 505 kts 11°
2026-04-30 06:20 31.90173 -9.54330 34177 ft 505 kts 11°
2026-04-30 06:20 31.93587 -9.53341 34468 ft 504 kts 11°
2026-04-30 06:20 31.96987 -9.52353 34769 ft 503 kts 11°
2026-04-30 06:20 32.00376 -9.51368 35093 ft 501 kts 11°
2026-04-30 06:21 32.03746 -9.50389 35496 ft 496 kts 11°
2026-04-30 06:21 32.07094 -9.49417 35828 ft 494 kts 11°
2026-04-30 06:21 32.10430 -9.48451 36018 ft 494 kts 11°
2026-04-30 06:22 32.17110 -9.46520 36050 ft 494 kts 11°
2026-04-30 06:22 32.23810 -9.44575 36051 ft 498 kts 11°
2026-04-30 06:23 32.30532 -9.42607 36054 ft 496 kts 11°
2026-04-30 06:23 32.37222 -9.40647 36055 ft 495 kts 11°
2026-04-30 06:24 32.43856 -9.38707 36058 ft 494 kts 11°
2026-04-30 06:24 32.50581 -9.36743 36061 ft 495 kts 11°
2026-04-30 06:25 32.57216 -9.34802 36081 ft 494 kts 11°
2026-04-30 06:25 32.63890 -9.32845 36085 ft 493 kts 11°
2026-04-30 06:26 32.70547 -9.30887 36088 ft 492 kts 11°
2026-04-30 06:26 32.77193 -9.28929 36085 ft 492 kts 11°
2026-04-30 06:27 32.83832 -9.26974 36096 ft 491 kts 11°
2026-04-30 06:27 32.90451 -9.25020 36092 ft 490 kts 11°
2026-04-30 06:28 32.97059 -9.23059 36084 ft 489 kts 11°
2026-04-30 06:28 33.03659 -9.21102 36082 ft 489 kts 11°
2026-04-30 06:29 33.10216 -9.19158 36081 ft 488 kts 11°
2026-04-30 06:29 33.16805 -9.17203 36081 ft 488 kts 11°
2026-04-30 06:30 33.23395 -9.15255 36080 ft 488 kts 11°
2026-04-30 06:30 33.29989 -9.13298 36079 ft 488 kts 11°
2026-04-30 06:31 33.36582 -9.11347 36090 ft 488 kts 11°
2026-04-30 06:31 33.43167 -9.09393 36095 ft 486 kts 11°
2026-04-30 06:32 33.49729 -9.07444 36068 ft 486 kts 11°
2026-04-30 06:32 33.56303 -9.05487 36064 ft 487 kts 11°
2026-04-30 06:33 33.62877 -9.03524 36084 ft 487 kts 12°
2026-04-30 06:33 33.68339 -9.01886 36094 ft 486 kts 12°
2026-04-30 06:34 33.74896 -8.99919 36093 ft 485 kts 12°
2026-04-30 06:34 33.81442 -8.97963 36093 ft 484 kts 12°
2026-04-30 06:35 33.87973 -8.96008 36094 ft 484 kts 12°
2026-04-30 06:35 33.94502 -8.94046 36106 ft 483 kts 12°
2026-04-30 06:36 34.01024 -8.92083 36099 ft 482 kts 12°
2026-04-30 06:36 34.07533 -8.90108 36094 ft 482 kts 12°
2026-04-30 06:37 34.14003 -8.88152 36092 ft 482 kts 12°
2026-04-30 06:37 34.20505 -8.86187 36095 ft 481 kts 12°
2026-04-30 06:38 34.27003 -8.84226 36105 ft 481 kts 12°
2026-04-30 06:38 34.33502 -8.82254 36094 ft 481 kts 12°
2026-04-30 06:39 34.39987 -8.80273 36095 ft 480 kts 12°
2026-04-30 06:39 34.46468 -8.78291 36079 ft 480 kts 12°
2026-04-30 06:40 34.52946 -8.76316 36082 ft 480 kts 12°
2026-04-30 06:40 34.59417 -8.74326 36080 ft 480 kts 12°
2026-04-30 06:41 34.65893 -8.72328 36075 ft 480 kts 12°
2026-04-30 06:41 34.72367 -8.70332 36065 ft 480 kts 13°
2026-04-30 06:42 34.78849 -8.68341 36067 ft 481 kts 12°
2026-04-30 06:42 34.85302 -8.66357 36067 ft 481 kts 13°
2026-04-30 06:43 34.91792 -8.64346 36075 ft 481 kts 13°
2026-04-30 06:43 34.98283 -8.62327 36093 ft 481 kts 13°
2026-04-30 06:44 35.04770 -8.60309 36089 ft 481 kts 13°
2026-04-30 06:44 35.11252 -8.58292 36088 ft 480 kts 13°
2026-04-30 06:45 35.17726 -8.56285 36081 ft 480 kts 13°
2026-04-30 06:45 35.24199 -8.54265 36083 ft 480 kts 13°
2026-04-30 06:46 35.30673 -8.52239 36082 ft 480 kts 13°
2026-04-30 06:46 35.37098 -8.50224 36085 ft 480 kts 13°
2026-04-30 06:47 35.43574 -8.48198 36087 ft 480 kts 13°
2026-04-30 06:47 35.50049 -8.46162 36093 ft 480 kts 14°
2026-04-30 06:48 35.56511 -8.44122 36094 ft 480 kts 14°
2026-04-30 06:48 35.62979 -8.42079 36095 ft 480 kts 14°
2026-04-30 06:49 35.69445 -8.40041 36091 ft 480 kts 14°
2026-04-30 06:49 35.75907 -8.38004 36090 ft 479 kts 14°
2026-04-30 06:50 35.82374 -8.35961 36093 ft 479 kts 14°
2026-04-30 06:50 35.88830 -8.33910 36071 ft 479 kts 14°
2026-04-30 06:51 35.95293 -8.31853 36075 ft 480 kts 14°
2026-04-30 06:51 36.01718 -8.29803 36087 ft 480 kts 14°
2026-04-30 06:52 36.08186 -8.27722 36085 ft 481 kts 14°
2026-04-30 06:52 36.14662 -8.25633 36094 ft 481 kts 14°
2026-04-30 06:53 36.21143 -8.23545 36099 ft 481 kts 14°
2026-04-30 06:53 36.27621 -8.21459 36096 ft 481 kts 14°
2026-04-30 06:54 36.34100 -8.19361 36098 ft 481 kts 14°
2026-04-30 06:54 36.40585 -8.17253 36091 ft 481 kts 14°
2026-04-30 06:55 36.47060 -8.15146 36100 ft 481 kts 14°
2026-04-30 06:55 36.53544 -8.13042 36098 ft 481 kts 14°
2026-04-30 06:56 36.60018 -8.10936 36095 ft 481 kts 14°
2026-04-30 06:56 36.66484 -8.08823 36093 ft 480 kts 14°
2026-04-30 06:57 36.72949 -8.06706 36098 ft 480 kts 14°
2026-04-30 06:57 36.79410 -8.04588 36103 ft 480 kts 14°
2026-04-30 06:58 36.85879 -8.02474 36103 ft 480 kts 14°
2026-04-30 06:58 36.92297 -8.00362 36104 ft 480 kts 14°
2026-04-30 06:59 36.98750 -7.98234 36109 ft 480 kts 14°
2026-04-30 06:59 37.05205 -7.96104 36105 ft 479 kts 14°
2026-04-30 07:00 37.11654 -7.93980 36099 ft 479 kts 14°
2026-04-30 07:00 37.18100 -7.91852 36098 ft 479 kts 14°
2026-04-30 07:01 37.24544 -7.89707 36102 ft 479 kts 14°
2026-04-30 07:01 37.30990 -7.87564 36110 ft 479 kts 14°
2026-04-30 07:02 37.37432 -7.85420 36113 ft 479 kts 14°
2026-04-30 07:02 37.43880 -7.83269 36114 ft 479 kts 14°
2026-04-30 07:03 37.50328 -7.81119 36124 ft 479 kts 13°
2026-04-30 07:03 37.56772 -7.78965 36122 ft 479 kts 14°
2026-04-30 07:04 37.63218 -7.76800 36125 ft 479 kts 14°
2026-04-30 07:04 37.69628 -7.74646 36126 ft 480 kts 14°
2026-04-30 07:05 37.79305 -7.71394 36125 ft 479 kts 13°
2026-04-30 07:05 37.85749 -7.69222 36123 ft 479 kts 13°
2026-04-30 07:06 37.92192 -7.67051 36123 ft 479 kts 13°
2026-04-30 07:06 37.98629 -7.64868 36114 ft 479 kts 13°
2026-04-30 07:07 38.05078 -7.62675 36113 ft 479 kts 13°
2026-04-30 07:07 38.11511 -7.60489 36108 ft 479 kts 13°
2026-04-30 07:08 38.17945 -7.58297 36099 ft 478 kts 13°
2026-04-30 07:08 38.24377 -7.56107 36104 ft 479 kts 13°
2026-04-30 07:09 38.30812 -7.53911 36110 ft 479 kts 13°
2026-04-30 07:09 38.37250 -7.51710 36112 ft 479 kts 13°
2026-04-30 07:10 38.43682 -7.49508 36128 ft 479 kts 13°
2026-04-30 07:10 38.50119 -7.47296 36126 ft 479 kts 13°
2026-04-30 07:11 38.56552 -7.45085 36120 ft 479 kts 13°
2026-04-30 07:11 38.62938 -7.42876 36117 ft 479 kts 13°
2026-04-30 07:12 38.69374 -7.40654 36124 ft 479 kts 13°
2026-04-30 07:12 38.75806 -7.38436 36123 ft 478 kts 13°
2026-04-30 07:13 38.82227 -7.36206 36122 ft 478 kts 13°
2026-04-30 07:13 38.88659 -7.33962 36118 ft 478 kts 13°
2026-04-30 07:14 38.95084 -7.31727 36127 ft 478 kts 12°
2026-04-30 07:14 39.01511 -7.29491 36126 ft 479 kts 12°
2026-04-30 07:15 39.07939 -7.27246 36123 ft 479 kts 12°
2026-04-30 07:15 39.14371 -7.25001 36133 ft 479 kts 12°
2026-04-30 07:16 39.20796 -7.22715 36126 ft 480 kts 16°
2026-04-30 07:16 39.26833 -7.19127 36109 ft 482 kts 25°
2026-04-30 07:17 39.32797 -7.15157 36112 ft 482 kts 25°
2026-04-30 07:18 39.41749 -7.09217 36121 ft 482 kts 24°
2026-04-30 07:18 39.47721 -7.05248 36116 ft 482 kts 25°
2026-04-30 07:19 39.53689 -7.01274 36116 ft 482 kts 24°
2026-04-30 07:19 39.59656 -6.97302 36115 ft 482 kts 25°
2026-04-30 07:20 39.65576 -6.93345 36119 ft 482 kts 24°
2026-04-30 07:20 39.71569 -6.89322 36115 ft 482 kts 24°
2026-04-30 07:21 39.77528 -6.85319 36113 ft 482 kts 25°
2026-04-30 07:21 39.83438 -6.81340 36115 ft 482 kts 24°
2026-04-30 07:22 39.92366 -6.75323 36114 ft 482 kts 24°
2026-04-30 07:22 39.98323 -6.71306 36112 ft 481 kts 24°
2026-04-30 07:23 40.04265 -6.67284 36113 ft 481 kts 24°
2026-04-30 07:23 40.09242 -6.63900 36124 ft 481 kts 24°
2026-04-30 07:24 40.15134 -6.59879 36118 ft 481 kts 24°
2026-04-30 07:24 40.21067 -6.55833 36111 ft 481 kts 24°
2026-04-30 07:25 40.28002 -6.51097 36110 ft 481 kts 24°
2026-04-30 07:25 40.32932 -6.47732 36129 ft 481 kts 24°
2026-04-30 07:26 40.38871 -6.43666 36110 ft 481 kts 24°
2026-04-30 07:26 40.44799 -6.39583 36110 ft 481 kts 24°
2026-04-30 07:27 40.50730 -6.35500 36105 ft 481 kts 24°
2026-04-30 07:27 40.56657 -6.31406 36103 ft 481 kts 24°
2026-04-30 07:28 40.62587 -6.27315 36102 ft 481 kts 24°
2026-04-30 07:28 40.68521 -6.23231 36106 ft 481 kts 24°
2026-04-30 07:29 40.74456 -6.19138 36120 ft 482 kts 24°
2026-04-30 07:29 40.80388 -6.15028 36125 ft 481 kts 24°
2026-04-30 07:30 40.89240 -6.08866 36110 ft 481 kts 24°
2026-04-30 07:31 40.95162 -6.04747 36105 ft 481 kts 23°
2026-04-30 07:31 41.01081 -6.00616 36117 ft 481 kts 23°
2026-04-30 07:32 41.06997 -5.96472 36106 ft 480 kts 23°
2026-04-30 07:32 41.12901 -5.92329 36095 ft 480 kts 23°
2026-04-30 07:33 41.18807 -5.88186 36092 ft 480 kts 23°
2026-04-30 07:33 41.24707 -5.84038 36112 ft 480 kts 23°
2026-04-30 07:34 41.30566 -5.79905 36104 ft 479 kts 23°
2026-04-30 07:34 41.36455 -5.75734 36101 ft 479 kts 23°
2026-04-30 07:35 41.42332 -5.71557 36105 ft 479 kts 23°
2026-04-30 07:35 41.48213 -5.67380 36096 ft 479 kts 23°
2026-04-30 07:36 41.54127 -5.63347 36091 ft 474 kts 17°
2026-04-30 07:36 41.60260 -5.59925 36087 ft 474 kts 18°
2026-04-30 07:37 41.66298 -5.56508 36108 ft 474 kts 18°
2026-04-30 07:37 41.72368 -5.53066 36101 ft 473 kts 18°
2026-04-30 07:38 41.78429 -5.49638 36089 ft 473 kts 18°
2026-04-30 07:38 41.84488 -5.46203 36087 ft 472 kts 18°
2026-04-30 07:39 41.90533 -5.42769 36097 ft 472 kts 18°
2026-04-30 07:39 41.96579 -5.39327 36094 ft 471 kts 18°
2026-04-30 07:40 42.02626 -5.35877 36081 ft 471 kts 18°
2026-04-30 07:40 42.08654 -5.32421 36105 ft 471 kts 19°
2026-04-30 07:41 42.14641 -5.28988 36096 ft 470 kts 19°
2026-04-30 07:41 42.20661 -5.25531 36088 ft 470 kts 19°
2026-04-30 07:42 42.26677 -5.22071 36085 ft 470 kts 19°
2026-04-30 07:42 42.32684 -5.18602 36096 ft 469 kts 19°
2026-04-30 07:43 42.38685 -5.15125 36092 ft 469 kts 19°
2026-04-30 07:43 42.44677 -5.11655 36093 ft 468 kts 19°
2026-04-30 07:44 42.50673 -5.08183 36105 ft 468 kts 19°
2026-04-30 07:44 42.56656 -5.04704 36104 ft 467 kts 20°
2026-04-30 07:45 42.62624 -5.01225 36103 ft 467 kts 19°
2026-04-30 07:45 42.68592 -4.97743 36101 ft 466 kts 20°
2026-04-30 07:46 42.74543 -4.94250 36102 ft 466 kts 20°
2026-04-30 07:46 42.80494 -4.90757 36087 ft 465 kts 20°
2026-04-30 07:47 42.86438 -4.87262 36095 ft 465 kts 20°
2026-04-30 07:47 42.92345 -4.83788 36098 ft 465 kts 20°
2026-04-30 07:48 42.98284 -4.80288 36097 ft 465 kts 20°
2026-04-30 07:48 43.04217 -4.76776 36087 ft 464 kts 20°
2026-04-30 07:49 43.10140 -4.73256 36083 ft 464 kts 20°
2026-04-30 07:49 43.16057 -4.69742 36096 ft 463 kts 20°
2026-04-30 07:50 43.21968 -4.66236 36089 ft 462 kts 20°
2026-04-30 07:50 43.27864 -4.62723 36076 ft 461 kts 20°
2026-04-30 07:51 43.33748 -4.59197 36074 ft 461 kts 20°
2026-04-30 07:51 43.39618 -4.55685 36090 ft 460 kts 20°
2026-04-30 07:52 43.45476 -4.52166 36079 ft 459 kts 20°
2026-04-30 07:52 43.51333 -4.48641 36074 ft 459 kts 20°
2026-04-30 07:53 43.57146 -4.45134 36085 ft 459 kts 21°
2026-04-30 07:53 43.62992 -4.41599 36082 ft 458 kts 21°
2026-04-30 07:54 43.68829 -4.38060 36075 ft 458 kts 21°
2026-04-30 07:54 43.74663 -4.34517 36072 ft 458 kts 21°
2026-04-30 07:55 43.80496 -4.30970 36071 ft 457 kts 21°
2026-04-30 07:55 43.86324 -4.27425 36068 ft 457 kts 21°
2026-04-30 07:56 43.92149 -4.23866 36066 ft 457 kts 21°
2026-04-30 07:56 43.97966 -4.20301 36072 ft 457 kts 22°
2026-04-30 07:57 44.03782 -4.16726 36065 ft 457 kts 22°
2026-04-30 07:57 44.09599 -4.13154 36062 ft 457 kts 22°
2026-04-30 07:58 44.15411 -4.09571 36065 ft 457 kts 22°
2026-04-30 07:58 44.21221 -4.05981 36064 ft 456 kts 23°
2026-04-30 07:59 44.27020 -4.02395 36058 ft 456 kts 22°
2026-04-30 07:59 44.32783 -3.98689 36056 ft 457 kts 28°
2026-04-30 08:00 44.40667 -3.91200 36059 ft 457 kts 34°
2026-04-30 08:00 44.45879 -3.86121 36059 ft 456 kts 34°
2026-04-30 08:01 44.51085 -3.81027 36051 ft 457 kts 34°
2026-04-30 08:01 44.56301 -3.75906 36034 ft 458 kts 35°
2026-04-30 08:02 44.64152 -3.68195 36022 ft 460 kts 35°
2026-04-30 08:03 44.74635 -3.57866 36024 ft 460 kts 35°
2026-04-30 08:04 44.79838 -3.52711 36027 ft 460 kts 35°
2026-04-30 08:04 44.85075 -3.47506 36028 ft 461 kts 35°
2026-04-30 08:05 44.90321 -3.42289 36028 ft 461 kts 36°
2026-04-30 08:05 44.95559 -3.37068 36027 ft 461 kts 36°
2026-04-30 08:06 45.00792 -3.31842 36034 ft 461 kts 36°
2026-04-30 08:06 45.06022 -3.26615 36038 ft 460 kts 36°
2026-04-30 08:07 45.11249 -3.21383 36036 ft 460 kts 36°
2026-04-30 08:07 45.16464 -3.16142 36032 ft 459 kts 37°
2026-04-30 08:08 45.21665 -3.10888 36038 ft 459 kts 37°
2026-04-30 08:08 45.26867 -3.05633 36036 ft 458 kts 37°
2026-04-30 08:09 45.32058 -3.00378 36037 ft 458 kts 37°
2026-04-30 08:09 45.37210 -2.95145 36035 ft 458 kts 37°
2026-04-30 08:10 45.41561 -2.90718 36034 ft 458 kts 37°
2026-04-30 08:10 45.46707 -2.85481 36031 ft 457 kts 37°
2026-04-30 08:11 45.51886 -2.80196 36025 ft 457 kts 37°
2026-04-30 08:11 45.57055 -2.74898 36024 ft 457 kts 37°
2026-04-30 08:12 45.62215 -2.69598 36021 ft 457 kts 38°
2026-04-30 08:12 45.67372 -2.64279 36023 ft 456 kts 38°
2026-04-30 08:13 45.72524 -2.58974 36022 ft 456 kts 38°
2026-04-30 08:13 45.77676 -2.53669 36017 ft 456 kts 38°
2026-04-30 08:14 45.82814 -2.48346 36024 ft 456 kts 38°
2026-04-30 08:14 45.87951 -2.43017 36024 ft 456 kts 38°
2026-04-30 08:15 45.93084 -2.37664 36022 ft 456 kts 38°
2026-04-30 08:15 45.98211 -2.32306 36011 ft 456 kts 38°
2026-04-30 08:16 46.03342 -2.26941 36017 ft 456 kts 38°
2026-04-30 08:16 46.07950 -2.20758 36019 ft 452 kts 49°
2026-04-30 08:17 46.12232 -2.14113 36020 ft 452 kts 50°
2026-04-30 08:17 46.16481 -2.07504 36017 ft 453 kts 50°
2026-04-30 08:18 46.20758 -2.00841 36022 ft 452 kts 50°
2026-04-30 08:18 46.25026 -1.94175 36026 ft 452 kts 50°
2026-04-30 08:19 46.29289 -1.87501 36034 ft 451 kts 50°
2026-04-30 08:19 46.33540 -1.80829 36038 ft 451 kts 50°
2026-04-30 08:20 46.37789 -1.74147 36044 ft 451 kts 50°
2026-04-30 08:20 46.42028 -1.67462 36042 ft 450 kts 50°
2026-04-30 08:21 46.46261 -1.60762 36035 ft 450 kts 50°
2026-04-30 08:21 46.50494 -1.54055 36040 ft 450 kts 50°
2026-04-30 08:22 46.54715 -1.47340 36049 ft 450 kts 50°
2026-04-30 08:22 46.58935 -1.40613 36050 ft 450 kts 50°
2026-04-30 08:23 46.63154 -1.33872 36051 ft 451 kts 50°
2026-04-30 08:23 46.67357 -1.27089 36054 ft 451 kts 50°
2026-04-30 08:24 46.71561 -1.20283 36047 ft 452 kts 50°
2026-04-30 08:24 46.75737 -1.13517 36044 ft 452 kts 50°
2026-04-30 08:25 46.79941 -1.06694 36043 ft 452 kts 50°
2026-04-30 08:25 46.84141 -0.99865 36040 ft 452 kts 50°
2026-04-30 08:26 46.88336 -0.93021 36047 ft 452 kts 50°
2026-04-30 08:26 46.92529 -0.86160 36049 ft 452 kts 51°
2026-04-30 08:27 46.96711 -0.79293 36041 ft 452 kts 50°
2026-04-30 08:27 47.00900 -0.72414 36055 ft 452 kts 50°
2026-04-30 08:28 47.05076 -0.65539 36053 ft 452 kts 50°
2026-04-30 08:28 47.09246 -0.58644 36059 ft 451 kts 51°
2026-04-30 08:29 47.13410 -0.51739 36064 ft 452 kts 51°
2026-04-30 08:29 47.17577 -0.44817 36068 ft 452 kts 51°
2026-04-30 08:30 47.21728 -0.37892 36072 ft 451 kts 51°
2026-04-30 08:30 47.25913 -0.31075 36084 ft 452 kts 48°
2026-04-30 08:31 47.30415 -0.24589 36086 ft 453 kts 45°
2026-04-30 08:31 47.35002 -0.18231 36088 ft 452 kts 46°
2026-04-30 08:32 47.39531 -0.11780 36091 ft 452 kts 47°
2026-04-30 08:32 47.43999 -0.05266 36088 ft 451 kts 47°
2026-04-30 08:33 47.48453 0.01256 36071 ft 450 kts 47°
2026-04-30 08:33 47.52910 0.07765 36072 ft 450 kts 47°
2026-04-30 08:34 47.57364 0.14280 36076 ft 450 kts 47°
2026-04-30 08:34 47.61817 0.20796 36085 ft 450 kts 47°
2026-04-30 08:35 47.66264 0.27319 36078 ft 449 kts 47°
2026-04-30 08:35 47.70693 0.33846 36082 ft 449 kts 47°
2026-04-30 08:36 47.75092 0.40347 36085 ft 449 kts 47°
2026-04-30 08:36 47.79516 0.46884 36079 ft 449 kts 46°
2026-04-30 08:37 47.83930 0.53444 36102 ft 448 kts 46°
2026-04-30 08:37 47.88338 0.60001 36106 ft 447 kts 46°
2026-04-30 08:38 47.92741 0.66549 36105 ft 447 kts 46°
2026-04-30 08:38 47.97123 0.73118 36106 ft 447 kts 47°
2026-04-30 08:39 48.01505 0.79702 36102 ft 446 kts 47°
2026-04-30 08:39 48.05881 0.86279 36115 ft 446 kts 46°
2026-04-30 08:40 48.10253 0.92862 36118 ft 446 kts 47°
2026-04-30 08:40 48.14613 0.99451 36123 ft 445 kts 46°
2026-04-30 08:41 48.18964 1.06041 36122 ft 445 kts 46°
2026-04-30 08:41 48.23109 1.12825 36129 ft 443 kts 52°
2026-04-30 08:42 48.27010 1.19993 36132 ft 443 kts 52°
2026-04-30 08:42 48.30907 1.27156 36133 ft 443 kts 52°
2026-04-30 08:43 48.34802 1.34315 36131 ft 442 kts 53°
2026-04-30 08:43 48.38687 1.41484 36137 ft 442 kts 52°
2026-04-30 08:44 48.42559 1.48660 36130 ft 442 kts 52°
2026-04-30 08:44 48.46423 1.55849 36138 ft 441 kts 53°
2026-04-30 08:45 48.50285 1.63045 36142 ft 441 kts 53°
2026-04-30 08:45 48.54148 1.70247 36143 ft 441 kts 53°
2026-04-30 08:46 48.57976 1.77412 36166 ft 441 kts 53°
2026-04-30 08:46 48.61822 1.84616 36177 ft 440 kts 53°
2026-04-30 08:47 48.65663 1.91826 36182 ft 440 kts 53°
2026-04-30 08:47 48.69485 1.99045 36187 ft 439 kts 53°
2026-04-30 08:48 48.73292 2.06272 36177 ft 439 kts 53°
2026-04-30 08:48 48.76423 2.14116 36185 ft 434 kts 70°
2026-04-30 08:49 48.78677 2.22594 36211 ft 434 kts 70°
2026-04-30 08:49 48.80946 2.31070 36208 ft 433 kts 70°
2026-04-30 08:50 48.83205 2.39550 36206 ft 433 kts 70°
2026-04-30 08:50 48.85439 2.47976 36203 ft 433 kts 70°
2026-04-30 08:51 48.87682 2.56461 36199 ft 433 kts 70°
2026-04-30 08:51 48.89906 2.64952 36192 ft 432 kts 70°
2026-04-30 08:52 48.92126 2.73422 36206 ft 431 kts 70°
2026-04-30 08:52 48.94338 2.81877 36210 ft 430 kts 70°
2026-04-30 08:53 48.96535 2.90339 36210 ft 429 kts 70°
2026-04-30 08:53 48.98728 2.98798 36210 ft 429 kts 70°
2026-04-30 08:54 49.00914 3.07270 36206 ft 429 kts 70°
2026-04-30 08:54 49.03074 3.15673 36220 ft 428 kts 70°
2026-04-30 08:55 49.05248 3.24163 36222 ft 427 kts 70°
2026-04-30 08:55 49.07382 3.32527 36231 ft 426 kts 70°
2026-04-30 08:56 49.09523 3.40940 36231 ft 425 kts 70°
2026-04-30 08:56 49.11655 3.49348 36221 ft 424 kts 70°
2026-04-30 08:57 49.14045 3.57571 36231 ft 425 kts 59°
2026-04-30 08:57 49.17746 3.64636 36225 ft 427 kts 50°
2026-04-30 08:58 49.21684 3.71431 36227 ft 427 kts 50°
2026-04-30 08:58 49.25619 3.78260 36231 ft 428 kts 50°
2026-04-30 08:59 49.28892 3.83954 36229 ft 428 kts 51°
2026-04-30 08:59 49.32818 3.90811 36236 ft 428 kts 51°
2026-04-30 09:00 49.37388 3.98796 36242 ft 429 kts 50°
2026-04-30 09:00 49.40685 4.04569 36255 ft 429 kts 51°
2026-04-30 09:01 49.44608 4.11479 36254 ft 429 kts 51°
2026-04-30 09:01 49.48495 4.18348 36259 ft 429 kts 51°
2026-04-30 09:02 49.54368 4.28732 36264 ft 429 kts 51°
2026-04-30 09:02 49.58278 4.35673 36258 ft 429 kts 50°
2026-04-30 09:03 49.62190 4.42634 36269 ft 429 kts 51°
2026-04-30 09:03 49.66099 4.49606 36259 ft 429 kts 51°
2026-04-30 09:04 49.70001 4.56588 36284 ft 429 kts 51°
2026-04-30 09:04 49.73898 4.63575 36290 ft 429 kts 51°
2026-04-30 09:05 49.77785 4.70566 36292 ft 429 kts 51°
2026-04-30 09:05 49.81666 4.77569 36287 ft 428 kts 51°
2026-04-30 09:06 49.85532 4.84572 36289 ft 428 kts 51°
2026-04-30 09:06 49.89409 4.91597 36289 ft 428 kts 51°
2026-04-30 09:07 49.93279 4.98623 36296 ft 428 kts 51°
2026-04-30 09:07 49.97143 5.05671 36309 ft 428 kts 51°
2026-04-30 09:08 49.98419 5.08000 36311 ft 428 kts 51°